Location: Cucq
(50.4773°N, 1.6202°E)
Time: 17:31:54
(UTC+00:00)

Spot 4 Rocket - Pass Details

Date: 07 August 2020
Orbit: 776 x 781 km, 98.7° (Epoch: 25 September)

Event Time Altitude Azimuth Distance (km) Brightness Sun altitude
Rises 03:09:27 0° 15° (NNE) 3,283 8.4 -11.3°
Reaches altitude 10° 03:11:46 10° 17° (NNE) 2,350 7.5 -11.0°
Maximum altitude 03:16:58 81° 105° (ESE) 798 4.1 -10.4°
Drops below altitude 10° 03:22:08 10° 193° (SSW) 2,331 6.0 -9.8°
Enters shadow 03:22:56 - 194° (SSW) 2,652 6.3 -9.7°
